Location: Newark
(41.6500°N, 71.4833°W)
Time: 08:00:03
(UTC+00:00)

Courier 1B - Visible Passes

Search period start: 25 January 2020 00:00
Search period end: 04 February 2020 00:00
Orbit: 962 x 1209 km, 28.3° (Epoch: 24 January)

Date Brightness Start Highest point End Pass type
(mag) Time Alt. Az. Time Alt. Az. Time Alt. Az.
25 Jan 9.1 08:52:10 28° SSE 08:52:10 28° SSE 08:57:42 10° ESE visible
25 Jan 9.3 10:39:04 12° WSW 10:44:45 27° S 10:51:04 10° SE visible
26 Jan 9.9 08:01:46 17° SE 08:01:46 17° SE 08:03:44 10° ESE visible
26 Jan 9.0 09:48:39 24° SW 09:51:02 28° S 09:57:26 10° SE visible
27 Jan 9.1 08:58:16 28° SSE 08:58:16 28° SSE 09:03:42 10° SE visible
27 Jan 9.4 10:45:10 10° WSW 10:50:41 22° SSW 10:56:22 10° SSE visible
28 Jan 9.8 08:07:52 17° SE 08:07:52 17° SE 08:09:52 10° ESE visible
28 Jan 9.1 09:54:45 21° SW 09:57:00 25° SSW 10:02:58 10° SE visible
29 Jan 9.1 09:04:22 26° S 09:04:22 26° S 09:09:24 10° SE visible
29 Jan 9.7 10:52:19 10° WSW 10:56:35 16° SSW 11:00:57 10° SSE visible
30 Jan 9.8 08:13:59 16° SE 08:13:59 16° SE 08:15:45 10° SE visible
30 Jan 9.3 10:00:53 17° SW 10:02:57 19° SSW 10:07:59 10° SSE visible
31 Jan 9.3 09:10:32 21° S 09:10:32 21° S 09:14:44 10° SSE visible
01 Feb 9.9 08:20:12 14° SSE 08:20:12 14° SSE 08:21:19 10° SE visible
01 Feb 9.6 10:07:06 12° SW 10:08:51 13° SSW 10:11:52 10° S visible
02 Feb 9.6 09:16:48 15° S 09:16:48 15° S 09:19:20 10° SSE visible
